Regional Weather Roundup
Issued by NWS

Home | Current Version | Previous Version | Text Only | Print | Product List | Glossary On
Versions: 1 2 3 4 5 6 7 8 9 10 11 12 13 14 15 16 17 18 19 20 21 22 23 24 25 26 27 28 29 30 31 32 33 34 35 36 37 38 39 40 41 42 43 44 45 46 47 48 49 50
879
ASUS45 KSLC 110610
RWRUT

UTAH REGIONAL WEATHER ROUNDUP
NATIONAL WEATHER SERVICE SALT LAKE CITY UT
1100 PM MST SAT DEC 10 2016

UTZ001>011-023>025-110700-

NORTHERN UTAH

CITY           SKY/WX    TMP DP  RH WIND       PRES   REMARKS
BRIGHAM CITY     N/A     36  33  90 S3        29.92R
HILL AFB       LGT SNOW  33  32  98 S8        29.91S FOG     WCI  25
LOGAN          MIX PCPN  35  33  92 NW7       29.89R WCI  29
OGDEN          LGT RAIN  33  32  96 S8        29.91S FOG     WCI  26
SALT LAKE CITY LGT RAIN  34  33  96 SE6       29.94R FOG     WCI  29
WENDOVER       CLOUDY    37  36  93 CALM      29.92S
HEBER CITY     LGT SNOW  32  32 100 SE7       29.88R WCI  26

$$

UTZ011>015-024>027-110700-

CENTRAL/NORTHEAST UTAH

CITY           SKY/WX    TMP DP  RH WIND       PRES   REMARKS
PROVO AIRPORT  LGT RAIN  34  33  96 NW15      29.95R WCI  24
MOAB/CANYONLAN MOCLDY    28  17  63 E5        29.90F WCI  23
DELTA          CLOUDY    37  34  87 N13       29.93R WCI  29
PRICE          CLOUDY    30  22  72 CALM      29.89S
ROOSEVELT      LGT SNOW  30  27  86 CALM      29.88S
VERNAL         LGT RAIN  33  32  96 N3        29.87R FOG

$$

UTZ013>016-019>022-027-110700-

SOUTHERN UTAH

CITY           SKY/WX    TMP DP  RH WIND       PRES   REMARKS
BRYCE CANYON   NOT AVBL
CEDAR CITY     CLOUDY    43  35  73 SW17G23   29.97F
MILFORD        MOCLDY    45  34  65 S24       29.95R
ST GEORGE      CLOUDY    48  34  57 SW5       30.04S
HANKSVILLE     MOCLDY    32  19  59 CALM      29.92S
BLANDING       CLOUDY    36  27  69 CALM      30.08S

$$

REGIONAL REPORTS     COLORADO/ARIZONA

CITY           SKY/WX    TMP DP  RH WIND       PRES   REMARKS
CRAIG, CO      LGT SNOW  33  31  92 W3        29.86R VSB 1
GRAND JUNCTION CLOUDY    29  25  85 CALM      29.91S
RIFLE, CO      CLOUDY    30  26  85 CALM      29.90R
MONTROSE, CO   CLOUDY    34  27  75 NW3       29.93R
CORTEZ, CO     CLOUDY    30  26  85 E3        30.03S
COLORADO CITY  CLOUDY    43  36  75 SE5       30.08S
PAGE, AZ       MOCLDY    41  26  55 CALM      30.02R
GRAND CANYON   CLOUDY    38  35  89 S5        30.12F WCI  34
KINGMAN, AZ    PTCLDY    47  35  63 S6        30.06S
FLAGSTAFF, AZ  CLOUDY    37  33  85 SW7       30.14F WCI  32

$$

REGIONAL REPORTS    NEVADA/IDAHO/WYOMING

CITY           SKY/WX    TMP DP  RH WIND       PRES   REMARKS
LAS VEGAS, NV  PTCLDY    50  24  36 CALM      30.00F
ELY, NY        LGT RAIN  44  34  67 W12       29.94R
ELKO, NV       CLOUDY    33  32  96 CALM      29.96R
POCATELLO, ID  CLOUDY    35  31  85 SW20      29.87R WCI  24
BURLEY, ID     LGT SNOW  33  31  92 SW14      29.90R FOG     WCI  23
FORT BRIDGER,  LGT SNOW  31  31 100 SW7       29.89F WCI  24
EVANSTON, WY   LGT SNOW  29  26  89 SW8       29.87S FOG     WCI  21
ROCK SPRINGS,  LGT SNOW  29  28  96 W14       29.86R FOG     WCI  18
KEMMERER, WY   LGT SNOW  28  28 100 SW12      29.84R WCI  18

$$




USA.gov is the U.S. government's official web portal to all federal, state and local government web resources and services.